Location: Melbourne
(37.8170°S, 144.9670°E)
Time: 22:49:11
(UTC+10:00)

Daily predictions for brighter satellites

Satellite Brightness Start Highest point End
(mag) Time Altitude Azimuth Time Altitude Azimuth Time Altitude Azimuth
ATLAS 2A CENTAUR R/B 4.0 17:40:44 10° NW 17:45:17 37° NNE 17:59:16 10° ENE
NOSS 3-1 (C) 3.4 17:53:04 10° SSW 17:59:27 66° SE 18:05:07 10° NE
SL-24 R/B - RUBIN 2 4.3 17:58:42 10° NW 18:02:50 52° SW 18:07:04 10° SSE
Cosmos 2237 Rocket 3.9 18:01:23 10° SSE 18:03:46 13° SE 18:06:09 10° ESE
Cosmos 2219 3.6 17:59:15 10° N 18:04:39 46° ENE 18:10:10 10° SE
IDEFIX/ARIANE 42P 2.7 18:00:49 10° SSE 18:06:03 60° E 18:11:12 10° N
OAO 2 Rocket 4.2 18:01:37 10° NW 18:06:13 38° NNE 18:10:52 10° E
Cosmos 2333 Rocket 3.5 18:06:27 10° S 18:10:31 19° SE 18:14:33 10° E
Cosmos 2034 Rocket 4.3 18:05:33 10° S 18:11:56 77° W 18:18:11 10° N
Centaur D-1A AC-31 2.8 18:10:22 10° NW 18:12:32 17° N 18:15:11 10° NE
ATLAS 2AS CENTAUR R/B 3.9 18:10:53 10° S 18:14:56 18° SE 18:18:38 11° ESE
NOSS 3-1 (A) 3.4 18:10:27 10° SSW 18:16:49 64° SE 18:22:29 10° NE
YAOGAN 1 3.3 18:14:39 10° SSE 18:18:35 31° E 18:22:28 10° NNE
Cosmos 1633 Rocket 3.2 18:16:03 10° N 18:20:18 53° E 18:24:37 10° SSE
Helios 1B rocket 4.1 18:18:24 11° E 18:20:30 15° ESE 18:22:50 10° SSE
Cosmos 2227 Rocket 3.5 18:17:39 10° NE 18:21:30 19° E 18:24:54 12° ESE
Cosmos 2219 Rocket 2.9 18:22:23 10° S 18:27:21 31° ESE 18:32:17 10° ENE
H-2A ROCKET BODY 3.2 18:25:15 10° WNW 18:31:46 26° NNW 18:34:24 10° NE
Cosmos 676 Rocket 3.9 18:29:41 10° N 18:34:52 73° ENE 18:40:06 10° SSE
Cosmos 1707 Rocket 3.8 18:32:02 10° S 18:36:36 79° W 18:41:05 10° N
Cosmos 1954 Rocket 4.0 18:32:05 10° N 18:37:11 61° ENE 18:42:20 10° SSE
ISS -3.9 18:35:05 10° NW 18:38:24 80° NE 18:40:24 23° SE
IRS-1A Rocket 4.2 18:33:30 10° SSE 18:39:11 82° ENE 18:44:43 10° NNW
ASTRO E2 4.2 18:41:50 10° NW 18:45:12 25° NNE 18:47:10 18° NE
Cosmos 1666 Rocket 4.3 18:43:42 10° NNW 18:48:08 57° W 18:52:38 10° S
MSX 3.9 18:42:50 10° SSE 18:48:44 89° WSW 18:54:31 10° NNW
Cosmos 1862 Rocket 3.9 18:46:21 10° S 18:50:34 40° E 18:54:45 10° NNE
Cosmos 407 Rocket 4.3 18:46:49 10° NW 18:51:50 51° WSW 18:57:00 10° S
CZ-4 R/B 1.8 18:48:24 10° S 18:52:31 66° WSW 18:56:30 10° NNW
Cosmos 614 Rocket 4.1 18:48:49 10° N 18:53:49 53° ENE 18:58:42 11° SSE
Cosmos 1869 3.8 18:51:37 10° SSW 18:55:36 64° W 18:59:31 10° N
ATLAS 2A CENTAUR R/B 4.5 18:50:46 10° NNW 18:56:07 30° NE 19:04:54 20° E
CSL-04 DEB 4.2 18:54:19 10° SSE 18:58:18 72° ENE 19:02:16 10° N
Cosmos 1933 Rocket 3.5 18:53:59 10° N 18:58:21 64° E 19:02:45 10° SSE
Sich 1 4.5 18:58:12 10° NNW 19:02:15 39° W 19:06:21 10° S
ATLAS CENTAUR R/B 1.9 19:01:21 10° SSW 19:06:11 55° SE 19:08:04 34° ENE
Cosmos 1570 Rocket 4.5 19:02:29 10° S 19:07:23 37° ESE 19:07:58 36° E
Cosmos 2360 Rocket 4.3 19:04:13 10° SW 19:09:00 29° WNW 19:13:45 10° NNW
SMAP 3.9 19:04:33 10° S 19:09:09 51° WSW 19:13:40 10° NNW
In-Cosmos 22 Rocket 4.2 19:03:49 10° N 19:09:13 60° E 19:14:51 10° SSE
SPOT 3 Rocket 3.5 19:04:28 10° SSE 19:09:47 85° ENE 19:15:00 10° NNW
CZ-2C R/B 4.1 19:05:13 10° S 19:09:48 36° WSW 19:14:28 10° NW
Intercosmos 25 Rocket 4.2 19:06:01 10° S 19:13:11 84° W 19:17:29 10° N
COSMOS 2428 3.3 19:10:31 10° SSW 19:16:09 59° WNW 19:21:43 10° N
Cosmos 2208 Rocket 4.3 19:14:17 10° S 19:19:34 44° ESE 19:19:48 44° ESE
Cosmos 1741 Rocket 3.9 19:15:01 10° N 19:20:16 69° ENE 19:23:02 28° SSE
Cosmos 1980 3.8 19:16:23 10° SSW 19:22:00 54° ESE 19:23:14 45° ENE
Lacrosse 5 2.4 19:19:03 10° NNW 19:23:25 41° NE 19:23:25 41° NE
Cosmos 1484 Rocket 4.1 19:24:04 10° S 19:27:37 38° WSW 19:31:08 10° NW
SL-16 R/B 3.8 19:23:44 10° S 19:26:08 20° SSE 19:26:08 20° SSE
Cosmos 1850 Rocket 3.9 19:25:24 10° NNW 19:30:39 89° ENE 19:33:36 28° SSE
METEOR-M 4.0 19:30:52 46° SE 19:32:16 63° E 19:37:34 10° N
Cosmos 2297 Rocket 2.1 19:27:01 10° N 19:32:36 63° ENE 19:33:22 57° ESE
Cosmos 1140 Rocket 4.3 19:28:37 10° NW 19:33:36 49° WSW 19:38:38 10° S
Cosmos 1933 4.2 19:37:53 10° SSW 19:41:56 51° W 19:45:55 10° N
NOSS 2-3 (D) 4.1 19:37:00 10° SSW 19:43:20 66° SE 19:43:20 66° SE
Cosmos 2084 Rocket 3.9 19:41:24 10° NNW 19:45:03 59° NNW 19:45:03 59° NNW
Tiangong 2 3.9 19:44:54 10° NW 19:45:45 17° NW 19:45:45 17° NW
Cosmos 2237 Rocket 2.0 19:42:58 10° SSW 19:48:43 83° ESE 19:48:56 81° ENE
OAO 2 Rocket 3.6 19:45:43 10° WNW 19:50:09 59° NNW 19:50:09 59° NNW
Meteor 2-10 Rocket 4.1 19:47:59 10° SSW 19:53:31 63° W 19:59:09 10° N
Cosmos 2333 Rocket 2.6 19:49:34 10° SSW 19:55:12 61° WNW 19:57:47 32° N
Helios 1B rocket 3.5 19:54:49 41° WNW 19:55:23 43° W 19:59:25 10° SSW
Cosmos 2227 Rocket 2.8 19:59:32 10° NW 20:05:03 53° WSW 20:06:48 39° SSW
ATLAS 2AS CENTAUR R/B 2.4 20:00:19 10° SSW 20:06:07 78° SSW 20:06:07 78° SSW
Cosmos 2219 Rocket 3.6 20:06:14 10° SW 20:11:16 34° WNW 20:15:44 12° NNW
Cosmos 2082 4.3 20:08:00 10° NW 20:13:34 53° WSW 20:14:17 50° SW
Nadezhda 4 Rocket 4.4 20:08:30 10° NNW 20:14:46 62° W 20:21:05 10° S
ISS -0.2 20:13:01 10° WSW 20:13:05 10° WSW 20:13:05 10° WSW
USA 215 4.3 20:24:39 34° S 20:24:39 34° S 20:28:55 10° SSW
ATLAS CENTAUR R/B 4.3 20:41:38 10° WSW 20:44:26 17° WNW 20:44:26 17° WNW
